Time,TemperatureF,DewpointF,PressureIn,WindDirection,WindDirectionDegrees,WindSpeedMPH,WindSpeedGustMPH,Humidity,HourlyPrecipIn,Conditions,Clouds,dailyrainin,SolarRadiationWatts/m^2,SoftwareType,DateUTC
2013-07-16 00:01:00,70.0,64.0,-100.00,NNW,346,1.0,3.0,80,0.00,,,0.00,0.000000,,2013-07-16 04:01:00,
2013-07-16 00:12:00,70.0,64.0,-100.00,NNW,346,1.0,3.0,80,0.00,,,0.00,0.000000,,2013-07-16 04:12:00,
2013-07-16 13:43:00,85.0,65.0,-100.00,WNW,302,4.0,9.0,51,0.00,,,0.00,847.000000,,2013-07-16 17:43:00,
2013-07-16 13:53:00,85.0,65.0,-100.00,WNW,302,4.0,9.0,51,0.00,,,0.00,847.000000,,2013-07-16 17:53:00,
2013-07-16 14:01:00,85.0,65.0,-100.00,WNW,302,4.0,9.0,51,0.00,,,0.00,847.000000,,2013-07-16 18:01:00,
2013-07-16 14:11:00,85.0,65.0,-100.00,WNW,302,4.0,9.0,51,0.00,,,0.00,847.000000,,2013-07-16 18:11:00,
2013-07-16 14:43:00,87.0,66.0,-100.00,SE,140,3.0,12.0,50,0.00,,,0.00,844.000000,,2013-07-16 18:43:00,
2013-07-16 14:53:00,87.0,66.0,-100.00,SE,140,3.0,12.0,50,0.00,,,0.00,844.000000,,2013-07-16 18:53:00,
2013-07-16 15:01:00,87.0,66.0,-100.00,SE,140,3.0,12.0,50,0.00,,,0.00,844.000000,,2013-07-16 19:01:00,
2013-07-16 15:11:00,87.0,66.0,-100.00,SE,140,3.0,12.0,50,0.00,,,0.00,844.000000,,2013-07-16 19:11:00,
2013-07-16 15:43:00,88.0,65.0,-100.00,NNW,335,3.0,7.0,46,0.00,,,0.00,854.000000,,2013-07-16 19:43:00,
2013-07-16 15:52:00,88.0,65.0,-100.00,NNW,335,3.0,7.0,46,0.00,,,0.00,854.000000,,2013-07-16 19:52:00,
2013-07-16 16:03:00,88.0,65.0,-100.00,NNW,335,3.0,7.0,46,0.00,,,0.00,854.000000,,2013-07-16 20:03:00,
2013-07-16 16:12:00,88.0,65.0,-100.00,NNW,335,3.0,7.0,46,0.00,,,0.00,854.000000,,2013-07-16 20:12:00,
2013-07-16 16:43:00,88.0,63.0,-100.00,NW,312,3.0,7.0,44,0.00,,,0.00,620.000000,,2013-07-16 20:43:00,
2013-07-16 16:52:00,88.0,63.0,-100.00,NW,312,3.0,7.0,44,0.00,,,0.00,620.000000,,2013-07-16 20:52:00,
2013-07-16 17:01:00,88.0,63.0,-100.00,NW,312,3.0,7.0,44,0.00,,,0.00,620.000000,,2013-07-16 21:01:00,
2013-07-16 17:11:00,88.0,63.0,-100.00,NW,312,3.0,7.0,44,0.00,,,0.00,620.000000,,2013-07-16 21:11:00,
2013-07-16 17:52:00,87.0,64.0,-100.00,NNW,335,3.0,8.0,46,0.00,,,0.00,609.000000,,2013-07-16 21:52:00,
2013-07-16 18:01:00,87.0,64.0,-100.00,NNW,335,3.0,8.0,46,0.00,,,0.00,609.000000,,2013-07-16 22:01:00,
2013-07-16 18:11:00,87.0,64.0,-100.00,NNW,335,3.0,8.0,46,0.00,,,0.00,609.000000,,2013-07-16 22:11:00,
2013-07-16 18:43:00,86.0,63.0,-100.00,WNW,300,4.0,10.0,46,0.00,,,0.00,484.000000,,2013-07-16 22:43:00,
2013-07-16 18:52:00,86.0,63.0,-100.00,WNW,300,4.0,10.0,46,0.00,,,0.00,484.000000,,2013-07-16 22:52:00,
2013-07-16 19:02:00,86.0,63.0,-100.00,WNW,300,4.0,10.0,46,0.00,,,0.00,484.000000,,2013-07-16 23:02:00,
2013-07-16 19:11:00,86.0,63.0,-100.00,WNW,300,4.0,10.0,46,0.00,,,0.00,484.000000,,2013-07-16 23:11:00,
2013-07-16 19:43:00,78.0,63.0,-100.00,NW,316,2.0,6.0,60,0.00,,,0.00,100.000000,,2013-07-16 23:43:00,
2013-07-16 19:52:00,78.0,63.0,-100.00,NW,316,2.0,6.0,60,0.00,,,0.00,100.000000,,2013-07-16 23:52:00,
2013-07-16 20:01:00,78.0,63.0,-100.00,NW,316,2.0,6.0,60,0.00,,,0.00,100.000000,,2013-07-17 00:01:00,
2013-07-16 20:11:00,78.0,63.0,-100.00,NW,316,2.0,6.0,60,0.00,,,0.00,100.000000,,2013-07-17 00:11:00,
2013-07-16 21:43:00,75.0,65.0,-100.00,NNW,328,1.0,3.0,70,-99.99,,,0.00,11.000000,,2013-07-17 01:43:00,
2013-07-16 21:53:00,75.0,65.0,-100.00,NNW,328,1.0,3.0,70,-99.99,,,0.00,11.000000,,2013-07-17 01:53:00,
2013-07-16 22:01:00,75.0,65.0,-100.00,NNW,328,1.0,3.0,70,-99.99,,,0.00,11.000000,,2013-07-17 02:01:00,
2013-07-16 22:11:00,75.0,65.0,-100.00,NNW,328,1.0,3.0,70,-99.99,,,0.00,11.000000,,2013-07-17 02:11:00,
2013-07-16 22:43:00,73.0,65.0,-100.00,NW,326,1.0,4.0,76,0.00,,,0.00,0.000000,,2013-07-17 02:43:00,
2013-07-16 22:53:00,73.0,65.0,-100.00,NW,326,1.0,4.0,76,0.00,,,0.00,0.000000,,2013-07-17 02:53:00,
2013-07-16 23:01:00,73.0,65.0,-100.00,NW,326,1.0,4.0,76,0.00,,,0.00,0.000000,,2013-07-17 03:01:00,
2013-07-16 23:11:00,73.0,65.0,-100.00,NW,326,1.0,4.0,76,0.00,,,0.00,0.000000,,2013-07-17 03:11:00,
2013-07-16 23:43:00,72.0,66.0,-100.00,WNW,293,1.0,3.0,81,0.00,,,0.00,0.000000,,2013-07-17 03:43:00,
2013-07-16 23:53:00,72.0,66.0,-100.00,WNW,293,1.0,3.0,81,0.00,,,0.00,0.000000,,2013-07-17 03:53:00,